Terminal Aerodrome Forecast
Issued by NWS Lake Charles, LA

Home | Current Version | Previous Version | Text Only | Print | Product List | Glossary On
Versions: 1 2 3 4 5 6 7 8 9 10 11 12 13 14 15 16 17 18 19
000
FTUS44 KLCH 310500
TAFBPT
TAF
KBPT 310520Z 3106/0106 15003KT P6SM SCT250
     FM311600 17007KT P6SM VCTS SCT030CB=

USA.gov is the U.S. government's official web portal to all federal, state and local government web resources and services.